User: anonymous   Login
Location: Cluny
(50.9333°N, 112.8167°W)
Time: 03:29:31
(UTC-06:00)
Language:

Cosmos 1743 Rocket - Orbit

View from above orbital plane
View from above orbital plane
View from above satellite
View from above satellite

Ground track
Ground track

The orbit data is extracted from the following two-line orbital elements,

1 16720U 86034B   14298.77010630  .00000930  00000-0  11157-3 0  5946
2 16720 082.5558 061.3558 0021224 049.3487 108.8655 14.82837664536168
Epoch (UTC): 25 October 2014 18:28:57
Eccentricity: 0.0021224
inclination: 82.5558°
perigee height: 605 km
apogee height: 635 km
right ascension of ascending node: 61.3558°
argument of perigee: 49.3487°
revolutions per day: 14.82837664
mean anomaly at epoch: 108.8655°
orbit number at epoch: 53616

The dashed part of the orbit path shows where the satellite is in the earth's shadow,  

DLR